Weather History for KAAA - February, 2014

Change the Weather History Date:

Tuesday, February 4, 2014

  Actual Average (KSPI) Record (KSPI)
Temperature  
Mean Temperature 16 °F 28 °F  
Max Temperature 22 °F 37 °F 71 °F (1890)
Min Temperature 11 °F 20 °F -17 °F (1996)
Degree Days  
Heating Degree Days 48 37  
Month to date heating degree days 148  
Since 1 July heating degree days 3474  
Cooling Degree Days 0 0  
Month to date cooling degree days 0  
Year to date cooling degree days 0  
Moisture  
Dew Point 15 °F    
Average Humidity 85    
Maximum Humidity 92    
Minimum Humidity 78    
Precipitation  
Precipitation 0.00 in 0.06 in 2.03 in (1942)
Month to date precipitation 0.22  
Year to date precipitation 2.04  
Snow  
Snow 0.00 in 0.30 in 4.20 in (2014)
Month to date snowfall 0.9  
Since 1 July snowfall 13.5  
Snow Depth -    
Sea Level Pressure  
Sea Level Pressure 30.25 in    
Wind  
Wind Speed 6 mph (NE)    
Max Wind Speed 18 mph    
Max Gust Speed 23 mph    
Visibility 6 miles    
Events Snow    
T = Trace of Precipitation, MM = Missing Value Source: NWS Daily Summary

Daily Weather History Graph

Daily Weather History Graph

Search for Another Location

Airport or City:

Trip Planner

Search our weather history database for the weather conditions in past years. The results will help you decide how hot, cold, wet, or windy it might be!

Date:

Astronomy

Feb. 04, 2014 Rise Set
Actual Time 7:03 AM CST 5:19 PM CST
Civil Twilight 6:34 AM CST 5:48 PM CST
Nautical Twilight 6:02 AM CST 6:20 PM CST
Astronomical Twilight 5:30 AM CST 6:52 PM CST
Moon 9:40 AM CST (2/4) 11:14 PM CST (2/4)
Length of Visible Light 11h 13m
Length of Day
10h 16m
Waxing Crescent, 29% of the Moon is Illuminated
Feb 4
Waxing Crescent
Feb 6
First Quarter
Feb 14
Full
Feb 22
Last Quarter
Mar 1
New

Hourly Weather History & Observations

Time (CST) Temp. Windchill Dew Point Humidity Pressure Visibility Wind Dir Wind Speed Gust Speed Precip Events Conditions
12:15 AM 11.8 °F - 6.8 °F 80% 30.38 in 10.0 mi Calm Calm - N/A   Clear
12:35 AM 12.6 °F - 7.7 °F 81% 30.37 in 10.0 mi Calm Calm - N/A   Clear
12:55 AM 13.5 °F - 8.8 °F 82% 30.37 in 10.0 mi Calm Calm - N/A   Clear
1:15 AM 14.2 °F 8.4 °F 9.5 °F 82% 30.37 in 10.0 mi ENE 3.5 mph - N/A   Clear
1:35 AM 14.2 °F - 9.5 °F 82% 30.39 in 10.0 mi Calm Calm - N/A   Clear
1:55 AM 14.0 °F - 9.5 °F 82% 30.39 in 10.0 mi Calm Calm - N/A   Clear
2:15 AM 13.6 °F - 9.5 °F 84% 30.39 in 10.0 mi Calm Calm - N/A   Clear
2:35 AM 13.8 °F - 10.0 °F 85% 30.39 in 10.0 mi Calm Calm - N/A   Clear
2:55 AM 14.0 °F - 10.0 °F 84% 30.39 in 10.0 mi Calm Calm - N/A   Clear
3:15 AM 14.5 °F 8.8 °F 10.4 °F 84% 30.39 in 10.0 mi NE 3.5 mph - N/A   Clear
3:35 AM 15.1 °F 7.7 °F 11.3 °F 85% 30.37 in 10.0 mi NE 4.6 mph - N/A   Clear
3:55 AM 15.6 °F 10.0 °F 11.7 °F 84% 30.37 in 10.0 mi NNE 3.5 mph - N/A   Clear
4:15 AM 15.8 °F 10.2 °F 11.7 °F 84% 30.37 in 10.0 mi NNE 3.5 mph - N/A   Clear
4:35 AM 14.9 °F 9.2 °F 10.9 °F 84% 30.39 in 10.0 mi NE 3.5 mph - N/A   Clear
4:55 AM 14.7 °F - 10.9 °F 85% 30.40 in 10.0 mi Calm Calm - N/A   Clear
5:15 AM 14.9 °F - 11.3 °F 86% 30.39 in 10.0 mi Calm Calm - N/A   Clear
5:35 AM 15.3 °F 9.6 °F 11.7 °F 86% 30.39 in 10.0 mi NNE 3.5 mph - N/A   Clear
5:55 AM 16.0 °F 10.4 °F 12.2 °F 85% 30.39 in 10.0 mi NNE 3.5 mph - N/A   Clear
6:15 AM 16.7 °F 11.2 °F 13.1 °F 86% 30.38 in 10.0 mi NE 3.5 mph - N/A   Clear
6:35 AM 17.6 °F 8.2 °F 13.6 °F 84% 30.37 in 10.0 mi NE 6.9 mph - N/A   Clear
6:55 AM 17.6 °F 8.2 °F 13.6 °F 84% 30.37 in 7.0 mi NE 6.9 mph - N/A   Mostly Cloudy
7:15 AM 18.5 °F 8.4 °F 14.0 °F 83% 30.37 in 10.0 mi ENE 8.1 mph - N/A   Overcast
7:35 AM 18.5 °F 8.4 °F 13.6 °F 81% 30.38 in 10.0 mi ENE 8.1 mph - N/A   Overcast
7:55 AM 19.0 °F 9.0 °F 14.5 °F 83% 30.37 in 7.0 mi ENE 8.1 mph - N/A   Overcast
8:15 AM 19.8 °F 10.8 °F 15.1 °F 82% 30.37 in 10.0 mi NE 6.9 mph - N/A   Overcast
8:35 AM 18.9 °F 8.8 °F 14.0 °F 81% 30.38 in 7.0 mi NNE 8.1 mph - N/A   Overcast
8:55 AM 19.0 °F 9.0 °F 14.0 °F 81% 30.37 in 10.0 mi NNE 8.1 mph - N/A   Overcast
9:15 AM 18.5 °F 8.4 °F 13.6 °F 81% 30.35 in 10.0 mi NE 8.1 mph - N/A   Overcast
9:35 AM 19.4 °F 10.4 °F 14.4 °F 81% 30.35 in 10.0 mi East 6.9 mph - N/A   Overcast
9:55 AM 20.3 °F 15.4 °F 14.9 °F 80% 30.37 in 10.0 mi ENE 3.5 mph - N/A   Overcast
10:15 AM 20.8 °F 12.1 °F 15.4 °F 80% 30.37 in 10.0 mi ENE 6.9 mph - N/A   Unknown
10:35 AM 21.4 °F 12.8 °F 15.6 °F 78% 30.35 in 10.0 mi NE 6.9 mph - N/A   Overcast
10:55 AM 21.0 °F 12.4 °F 15.6 °F 80% 30.34 in 10.0 mi NE 6.9 mph - N/A   Overcast
11:15 AM 21.2 °F 11.7 °F 15.4 °F 78% 30.33 in 10.0 mi NE 8.1 mph - N/A   Overcast
11:35 AM 21.2 °F 10.9 °F 15.8 °F 80% 30.30 in 7.0 mi NNE 9.2 mph - N/A   Overcast
11:55 AM 21.2 °F 11.7 °F 16.2 °F 81% 30.30 in 5.0 mi NE 8.1 mph - N/A Snow Light Snow
12:15 PM 21.0 °F 10.6 °F 16.3 °F 82% 30.29 in 4.0 mi NE 9.2 mph - N/A Snow Light Snow
12:35 PM 21.6 °F 12.1 °F 17.1 °F 83% 30.27 in 5.0 mi NNE 8.1 mph - N/A Snow Light Snow
12:55 PM 22.6 °F 11.9 °F 16.7 °F 78% 30.26 in 7.0 mi ENE 10.4 mph - N/A   Overcast
1:15 PM 22.5 °F 11.7 °F 16.9 °F 79% 30.27 in 0.8 mi ENE 10.4 mph - N/A Snow Light Snow
1:35 PM 21.9 °F 11.7 °F 18.7 °F 87% 30.27 in 0.5 mi ENE 9.2 mph - N/A Snow Snow
1:55 PM 22.1 °F 12.0 °F 18.9 °F 87% 30.26 in 0.5 mi ENE 9.2 mph - N/A Snow Snow
2:15 PM 22.1 °F 12.0 °F 19.2 °F 89% 30.24 in 0.5 mi ENE 9.2 mph - N/A Snow Snow
2:35 PM 22.1 °F 10.6 °F 19.2 °F 89% 30.21 in 0.5 mi NE 11.5 mph - N/A Snow Snow
2:55 PM 22.1 °F 10.0 °F 19.4 °F 89% 30.19 in 0.5 mi NE 12.7 mph - N/A Snow Snow
3:15 PM 22.1 °F 11.3 °F 19.2 °F 89% 30.20 in 0.5 mi NE 10.4 mph - N/A Snow Light Snow
3:35 PM 22.1 °F 10.0 °F 19.0 °F 88% 30.21 in 1.2 mi ENE 12.7 mph - N/A Snow Light Snow
3:55 PM 22.1 °F 10.6 °F 18.9 °F 87% 30.18 in 1.2 mi NE 11.5 mph - N/A Snow Light Snow
4:15 PM 22.1 °F 10.6 °F 19.2 °F 89% 30.16 in 1.0 mi NE 11.5 mph - N/A Snow Light Snow
4:35 PM 21.7 °F 10.2 °F 19.0 °F 89% 30.14 in 0.8 mi NE 11.5 mph 18.4 mph N/A Snow Light Snow
4:55 PM 21.4 °F 9.7 °F 18.9 °F 90% 30.16 in 0.8 mi NE 11.5 mph 18.4 mph N/A Snow Light Snow
5:15 PM 21.2 °F 7.8 °F 18.5 °F 89% 30.14 in 1.0 mi NE 15.0 mph - N/A Snow Light Snow
5:35 PM 21.2 °F 7.8 °F 18.7 °F 90% 30.14 in 1.5 mi NE 15.0 mph - N/A Snow Light Snow
6:15 PM 21.2 °F 6.4 °F 18.9 °F 91% 30.09 in 1.8 mi NE 18.4 mph 23.0 mph N/A Snow Light Snow
6:35 PM 21.2 °F 6.4 °F 19.2 °F 92% 30.05 in 0.8 mi NE 18.4 mph - N/A Snow Snow
6:55 PM 21.6 °F 8.8 °F 19.2 °F 91% 30.07 in 1.8 mi NE 13.8 mph 20.7 mph N/A Snow Light Snow
7:15 PM 21.6 °F 9.3 °F 19.0 °F 90% 30.08 in 3.0 mi NNE 12.7 mph 18.4 mph N/A Snow Light Snow
7:35 PM 21.6 °F 8.8 °F 18.7 °F 89% 30.08 in 4.0 mi NNE 13.8 mph - N/A Snow Light Snow
7:55 PM 21.6 °F 8.2 °F 18.3 °F 87% 30.07 in 4.0 mi NNE 15.0 mph - N/A Snow Light Snow
8:15 PM 21.6 °F 8.2 °F 18.3 °F 87% 30.06 in 3.0 mi NE 15.0 mph - N/A Snow Light Snow
8:35 PM 21.6 °F 8.2 °F 18.3 °F 87% 30.07 in 4.0 mi NNE 15.0 mph - N/A Snow Light Snow
8:55 PM 21.7 °F 9.0 °F 18.5 °F 87% 30.07 in 2.5 mi NE 13.8 mph - N/A Snow Light Snow
9:15 PM 21.6 °F 8.8 °F 18.5 °F 88% 30.06 in 1.8 mi NNE 13.8 mph 19.6 mph N/A Snow Light Snow
9:35 PM 21.6 °F 9.3 °F 18.9 °F 89% 30.06 in 1.2 mi NNE 12.7 mph - N/A Snow Light Snow
9:55 PM 21.7 °F 9.6 °F 19.0 °F 89% 30.05 in 1.2 mi NNE 12.7 mph 18.4 mph N/A Snow Light Snow
10:15 PM 21.9 °F 10.4 °F 19.2 °F 89% 30.05 in 1.5 mi NNE 11.5 mph - N/A Snow Light Snow
10:35 PM 21.6 °F 8.8 °F 19.2 °F 91% 30.04 in 1.0 mi NNE 13.8 mph - N/A Snow Snow
10:55 PM 21.4 °F 9.1 °F 18.9 °F 90% 30.04 in 1.2 mi North 12.7 mph - N/A Snow Light Snow
11:15 PM 21.4 °F 8.5 °F 19.0 °F 91% 30.03 in 0.8 mi North 13.8 mph - N/A Snow Snow
11:35 PM 21.7 °F 9.0 °F 19.4 °F 91% 30.03 in 1.0 mi North 13.8 mph - N/A Snow Light Snow
11:55 PM 22.1 °F 8.5 °F 19.8 °F 91% 30.02 in 1.5 mi North 16.1 mph 20.7 mph N/A Snow Light Snow